Location: Pcim
(49.7500°N, 19.9670°E)
Time: 05:58:45
(UTC+02:00)

BEESAT - Visible Passes

Search period start: 16 April 2024 00:00
Search period end: 26 April 2024 00:00
Orbit: 693 x 702 km, 98.5° (Epoch: 15 April)

Date Brightness Start Highest point End Pass type
(mag) Time Alt. Az. Time Alt. Az. Time Alt. Az.
16 Apr ? 22:47:50 10° NNE 22:52:14 71° ENE 22:52:14 71° ENE visible
17 Apr ? 00:26:32 10° NNW 00:29:40 18° WNW 00:31:02 16° WNW visible
17 Apr ? 21:52:08 10° NE 21:55:21 23° E 21:55:21 23° E visible
17 Apr ? 23:29:17 10° N 23:33:49 48° WNW 23:34:08 47° W visible
18 Apr ? 22:32:52 10° NNE 22:37:15 53° E 22:37:15 53° E visible
19 Apr ? 00:11:08 10° N 00:14:50 23° WNW 00:16:03 21° W visible
19 Apr ? 21:37:35 10° NE 21:40:21 18° E 21:40:21 18° E visible
19 Apr ? 23:14:09 10° N 23:18:51 66° WNW 23:19:09 64° W visible
20 Apr ? 00:54:03 10° NNW 00:55:35 11° NW 00:57:08 10° WNW visible
20 Apr ? 22:17:58 10° NNE 22:22:15 39° E 22:22:15 39° E visible
20 Apr ? 23:55:50 10° N 23:59:56 30° WNW 00:01:03 27° W visible
21 Apr ? 21:23:22 10° ENE 21:25:21 13° E 21:25:21 13° E visible
21 Apr ? 22:59:05 10° NNE 23:03:50 88° WNW 23:04:08 79° SSW visible
22 Apr ? 00:38:09 10° NNW 00:40:46 15° NW 00:42:56 11° W visible
22 Apr ? 22:03:09 10° NE 22:07:14 29° E 22:07:14 29° E visible
22 Apr ? 23:40:36 10° N 23:45:00 39° WNW 23:46:02 35° W visible
23 Apr ? 22:44:02 10° NNE 22:48:46 68° ESE 22:49:06 65° SE visible
24 Apr ? 00:22:36 10° NNW 00:25:55 19° WNW 00:27:54 15° W visible
24 Apr ? 21:48:26 10° NE 21:52:05 22° E 21:52:12 22° E visible
24 Apr ? 23:25:24 10° N 23:30:01 53° WNW 23:30:59 44° WSW visible
25 Apr ? 22:29:03 10° NNE 22:33:39 49° E 22:34:04 48° ESE visible
